[ hide orbit diagram ]
For accurate long-term ephemerides, please instead use our Horizons system.This orbit viewer was implemented using two-body methods, and hence should not be used for determining accurate long-term trajectories (over several years or decades) or planetary encounter circumstances.
Orbital Elements at Epoch 2459200.5 (2020-Dec-17.0) TDB
Reference: JPL 31 (heliocentric ecliptic J2000)
Element | Value | Uncertainty (1-sigma) | Units |
e | .09672747112468401 | 3.3854e-08 | |
a | 2.201947856054334 | 6.3036e-09 | au |
q | 1.988959008389779 | 7.5649e-08 | au |
i | 3.268361400085475 | 2.9361e-06 | deg |
node | 91.90786786776188 | 6.669e-05 | deg |
peri | 231.2009397084825 | 6.869e-05 | deg |
M | 7.445464094113991 | 1.6467e-05 | deg |
tp | 2459175.816982840430 (2020-Nov-22.31698284) | 5.4588e-05 | TDB |
period | 1193.463035362671 3.27 | 5.1249e-06 1.403e-08 | d yr |
n | .3016431924015164 | 1.2953e-09 | deg/d |
Q | 2.414936703718889 | 6.9133e-09 | au |
|
| | Orbit Determination Parameters
Additional Information
|
[ show covariance matrix ]
Physical Parameter Table
Parameter |
Symbol |
Value |
Units |
Sigma |
Reference |
Notes |
absolute magnitude |
H |
14.62 |
|
n/a |
E2021B10 |
|
diameter |
diameter |
3.262 |
km |
0.114 |
urn:nasa:pds:neowise_diameters_albedos::2.0[mainbelt] (http://adsabs.harvard.edu/abs/2011ApJ...741...68M) |
|
geometric albedo |
albedo |
0.316 |
|
0.042 |
urn:nasa:pds:neowise_diameters_albedos::2.0[mainbelt] (http://adsabs.harvard.edu/abs/2011ApJ...741...68M) |
|
|
14419 (1991 RK23) Discovered 1991-Sep-15 by Holt, H. E. at Palomar |
Reference: 20000418/Numbers.arc | Last Updated: 2004-04-19 |
|
[ show close-approach data ]
Alternate Designations
1991 RK23 = 1993 CW = 1998 XW83 |
|
|